Location: Crescent
(42.8242°N, 73.7329°W)
Time: 20:35:50
(UTC+00:00)

Vanguard 2 Rocket - Pass Details

Date: 15 February 2026
Orbit: 553 x 3287 km, 32.9° (Epoch: 7 March)

Event Time Altitude Azimuth Distance (km) Brightness Sun altitude
Rises 14:17:46 0° 182° (S) 7,196 12.1 22.2°
Reaches altitude 10° 14:27:21 10° 159° (SSE) 6,199 12.5 23.4°
Maximum altitude 14:34:16 13° 138° (SE) 5,776 13.3 24.3°
Drops below altitude 10° 14:40:41 10° 117° (ESE) 5,736 12.3 25.1°
Sets 14:48:26 0° 94° (E) 6,222 11.7 26.0°
